, CO

(GMT )
Cottonwood Pass

Weather History for K7BM - March, 2013

Change the Weather History Date:

Sunday, March 17, 2013

  Actual Average Record
Temperature  
Mean Temperature 32 °F -  
Max Temperature 37 °F - - ()
Min Temperature 28 °F - - ()
Degree Days  
Heating Degree Days 32    
Moisture  
Dew Point 20 °F    
Average Humidity 63    
Maximum Humidity 93    
Minimum Humidity 37    
Precipitation  
Precipitation 0.00 in - - ()
Sea Level Pressure  
Sea Level Pressure 29.80 in    
Wind  
Wind Speed 7 mph (WNW)    
Max Wind Speed 26 mph    
Max Gust Speed 43 mph    
Visibility 7 miles    
Events Snow    
T = Trace of Precipitation, MM = Missing Value Source: NWS Daily Summary

Daily Weather History Graph

Daily Weather History Graph

Search for Another Location

Airport or City:

Trip Planner

Search our weather history database for the weather conditions in past years. The results will help you decide how hot, cold, wet, or windy it might be!

Date:

Astronomy

Mar. 17, 2013 Rise Set
Actual Time 7:12 AM MDT 7:14 PM MDT
Civil Twilight 6:46 AM MDT 7:40 PM MDT
Nautical Twilight 6:15 AM MDT 8:11 PM MDT
Astronomical Twilight 5:43 AM MDT 8:43 PM MDT
Moon 10:30 AM MDT (3/17) 12:21 AM MDT (3/17)
Length of Visible Light 12h 54m
Length of Day
12h 01m
Waxing Crescent, 32% of the Moon is Illuminated
Mar 17
Waxing Crescent
Mar 19
First Quarter
Mar 27
Full
Apr 2
Last Quarter
Apr 10
New

Hourly Weather History & Observations

Time (MDT) Temp. Windchill Dew Point Humidity Pressure Visibility Wind Dir Wind Speed Gust Speed Precip Events Conditions
12:16 AM 32.0 °F 25.6 °F 21.2 °F 64% 29.96 in 10.0 mi West 6.9 mph - N/A   Clear
12:35 AM 32.0 °F 27.5 °F 23.0 °F 69% 29.96 in 10.0 mi NW 4.6 mph - N/A   Clear
12:56 AM 32.0 °F 27.5 °F 23.0 °F 69% 29.95 in 10.0 mi NNW 4.6 mph - N/A   Clear
1:16 AM 32.0 °F 28.7 °F 21.2 °F 64% 29.94 in 10.0 mi WNW 3.5 mph - N/A   Scattered Clouds
1:36 AM 32.0 °F 28.7 °F 19.4 °F 60% 29.93 in 10.0 mi WSW 3.5 mph - N/A   Mostly Cloudy
1:56 AM 32.0 °F - 19.4 °F 60% 29.93 in 10.0 mi Calm Calm - N/A   Scattered Clouds
2:16 AM 32.0 °F - 23.0 °F 69% 29.92 in 10.0 mi Calm Calm - N/A   Clear
2:35 AM 32.0 °F 25.6 °F 23.0 °F 69% 29.91 in 10.0 mi WSW 6.9 mph - N/A   Clear
2:56 AM 32.0 °F 25.6 °F 21.2 °F 64% 29.91 in 10.0 mi WSW 6.9 mph - N/A   Clear
3:16 AM 32.0 °F - 21.2 °F 64% 29.90 in 10.0 mi Calm Calm - N/A   Clear
3:36 AM 32.0 °F 28.7 °F 21.2 °F 64% 29.89 in 10.0 mi SW 3.5 mph - N/A   Clear
3:56 AM 32.0 °F - 21.2 °F 64% 29.88 in 10.0 mi Calm Calm - N/A   Clear
4:16 AM 32.0 °F - 19.4 °F 60% 29.87 in 10.0 mi Calm Calm - N/A   Clear
4:36 AM 32.0 °F - 21.2 °F 64% 29.86 in 10.0 mi Calm Calm - N/A   Clear
4:55 AM 32.0 °F - 21.2 °F 64% 29.86 in 10.0 mi Calm Calm - N/A   Clear
5:16 AM 32.0 °F 28.7 °F 21.2 °F 64% 29.85 in 10.0 mi NW 3.5 mph - N/A   Clear
5:36 AM 32.0 °F 27.5 °F 19.4 °F 60% 29.85 in 10.0 mi West 4.6 mph - N/A   Clear
5:56 AM 32.0 °F 28.7 °F 19.4 °F 60% 29.84 in 10.0 mi SW 3.5 mph - N/A   Clear
6:15 AM 32.0 °F - 19.4 °F 60% 29.83 in 10.0 mi Calm Calm - N/A   Clear
6:36 AM 32.0 °F 26.4 °F 19.4 °F 60% 29.82 in 10.0 mi West 5.8 mph - N/A   Clear
6:56 AM 32.0 °F 27.5 °F 19.4 °F 60% 29.82 in 10.0 mi North 4.6 mph - N/A   Mostly Cloudy
7:16 AM 32.0 °F - 19.4 °F 60% 29.82 in 10.0 mi Calm Calm - N/A   Scattered Clouds
7:36 AM 32.0 °F 26.4 °F 21.2 °F 64% 29.83 in 10.0 mi West 5.8 mph - N/A   Mostly Cloudy
7:56 AM 30.2 °F - 23.0 °F 75% 29.83 in 10.0 mi Calm Calm - N/A   Overcast
8:16 AM 32.0 °F 26.4 °F 23.0 °F 69% 29.81 in 10.0 mi South 5.8 mph - N/A Snow Light Snow
8:36 AM 32.0 °F 25.6 °F 21.2 °F 64% 29.81 in 10.0 mi SSE 6.9 mph - N/A   Overcast
8:56 AM 32.0 °F 27.5 °F 24.8 °F 75% 29.79 in 10.0 mi ESE 4.6 mph - N/A   Overcast
9:15 AM 30.2 °F - 26.6 °F 86% 29.81 in 1.8 mi Calm Calm - N/A Snow Light Snow
9:36 AM 30.2 °F - 26.6 °F 86% 29.80 in 0.5 mi Calm Calm - N/A Snow Snow
9:56 AM 32.0 °F 28.7 °F 26.6 °F 80% 29.79 in 2.0 mi NNW 3.5 mph - N/A Snow Light Snow
10:16 AM 30.2 °F 25.4 °F 28.4 °F 93% 29.79 in 1.2 mi WNW 4.6 mph - N/A Snow Light Snow
10:36 AM 30.2 °F - 28.4 °F 93% 29.79 in 0.5 mi Calm Calm - N/A Snow Light Snow
10:56 AM 32.0 °F - 28.4 °F 87% 29.79 in 4.0 mi Calm Calm - N/A Snow Light Snow
11:16 AM 32.0 °F 27.5 °F 28.4 °F 87% 29.78 in 1.0 mi WNW 4.6 mph - N/A   Haze
11:36 AM 35.6 °F - 28.4 °F 75% 29.77 in 4.0 mi Calm Calm - N/A   Haze
11:56 AM 35.6 °F 24.5 °F 19.4 °F 52% 29.75 in 10.0 mi West 20.7 mph 35.7 mph N/A   Overcast
12:15 PM 35.6 °F 23.2 °F 17.6 °F 48% 29.74 in 10.0 mi West 26.5 mph 41.4 mph N/A   Mostly Cloudy
12:36 PM 35.6 °F 25.2 °F 17.6 °F 48% 29.73 in 10.0 mi West 18.4 mph 36.8 mph N/A   Scattered Clouds
12:55 PM 33.8 °F 23.5 °F 21.2 °F 60% 29.73 in 5.0 mi West 16.1 mph 29.9 mph N/A Snow Light Snow
1:16 PM 35.6 °F 25.2 °F 14.0 °F 41% 29.72 in 10.0 mi WNW 18.4 mph 41.4 mph N/A   Overcast
1:35 PM 35.6 °F 24.2 °F 14.0 °F 41% 29.72 in 10.0 mi West 21.9 mph 42.6 mph N/A   Overcast
1:56 PM 37.4 °F 30.8 °F 17.6 °F 45% 29.71 in 10.0 mi WNW 9.2 mph 31.1 mph N/A   Overcast
2:16 PM 35.6 °F 25.5 °F 14.0 °F 41% 29.69 in 10.0 mi West 17.3 mph 34.5 mph N/A   Overcast
2:36 PM 35.6 °F 29.2 °F 14.0 °F 41% 29.70 in 7.0 mi WNW 8.1 mph 26.5 mph N/A   Overcast
2:56 PM 32.0 °F 25.6 °F 24.8 °F 75% 29.70 in 1.0 mi North 6.9 mph 16.1 mph N/A Snow Light Snow
3:16 PM 32.0 °F 25.6 °F 28.4 °F 87% 29.69 in 0.8 mi NW 6.9 mph - N/A Snow Light Snow
3:36 PM 32.0 °F 19.8 °F 23.0 °F 69% 29.69 in 1.0 mi West 20.7 mph 36.8 mph N/A Snow Light Snow
3:56 PM 33.8 °F 21.9 °F 17.6 °F 52% 29.68 in 10.0 mi West 21.9 mph 41.4 mph N/A Snow Light Snow
4:16 PM 33.8 °F 22.8 °F 17.6 °F 52% 29.68 in 7.0 mi NW 18.4 mph 32.2 mph N/A Snow Light Snow
4:36 PM 33.8 °F 22.8 °F 17.6 °F 52% 29.69 in 10.0 mi West 18.4 mph 35.7 mph N/A   Overcast
4:56 PM 32.0 °F 24.8 °F 21.2 °F 64% 29.69 in 2.5 mi North 8.1 mph 25.3 mph N/A Snow Light Snow
5:16 PM 32.0 °F 22.5 °F 21.2 °F 64% 29.71 in 2.5 mi NW 12.7 mph 18.4 mph N/A Snow Light Snow
5:36 PM 32.0 °F 24.8 °F 17.6 °F 55% 29.72 in 4.0 mi NW 8.1 mph 26.5 mph N/A Snow Light Snow
5:56 PM 32.0 °F 27.5 °F 21.2 °F 64% 29.72 in 3.0 mi North 4.6 mph 21.9 mph N/A Snow Light Snow
6:16 PM 30.2 °F 21.3 °F 23.0 °F 75% 29.73 in 1.0 mi NW 10.4 mph 23.0 mph N/A Snow Light Snow
6:36 PM 32.0 °F 26.4 °F 21.2 °F 64% 29.75 in 2.5 mi NW 5.8 mph 21.9 mph N/A Snow Light Snow
6:55 PM 30.2 °F 20.2 °F 21.2 °F 69% 29.75 in 1.0 mi WNW 12.7 mph 25.3 mph N/A Snow Light Snow
7:16 PM 30.2 °F 22.6 °F 21.2 °F 69% 29.76 in 1.5 mi NNW 8.1 mph 21.9 mph N/A Snow Light Snow
7:36 PM 30.2 °F 24.3 °F 21.2 °F 69% 29.77 in 4.0 mi NNW 5.8 mph 24.2 mph N/A Snow Light Snow
7:56 PM 30.2 °F 17.1 °F 17.6 °F 60% 29.78 in 4.0 mi West 21.9 mph 34.5 mph N/A Snow Light Snow
8:16 PM 30.2 °F 19.3 °F 15.8 °F 55% 29.78 in 10.0 mi WNW 15.0 mph 35.7 mph N/A   Overcast
8:36 PM 30.2 °F 18.5 °F 15.8 °F 55% 29.79 in 10.0 mi West 17.3 mph 26.5 mph N/A   Overcast
8:56 PM 30.2 °F 21.3 °F 17.6 °F 60% 29.79 in 7.0 mi WNW 10.4 mph 32.2 mph N/A   Overcast
9:15 PM 28.4 °F 22.2 °F 17.6 °F 64% 29.80 in 5.0 mi NNW 5.8 mph - N/A Snow Light Snow
9:36 PM 28.4 °F 17.0 °F 19.4 °F 69% 29.82 in 2.0 mi West 15.0 mph 26.5 mph N/A Snow Light Snow
9:55 PM 28.4 °F 16.6 °F 17.6 °F 64% 29.83 in 10.0 mi West 16.1 mph 25.3 mph N/A   Overcast
10:15 PM 28.4 °F 16.6 °F 17.6 °F 64% 29.83 in 10.0 mi West 16.1 mph 23.0 mph N/A   Overcast
10:35 PM 28.4 °F 19.1 °F 12.2 °F 51% 29.83 in 10.0 mi NW 10.4 mph 24.2 mph N/A   Overcast
10:55 PM 28.4 °F 20.4 °F 10.4 °F 47% 29.84 in 10.0 mi WNW 8.1 mph 23.0 mph N/A   Overcast
11:16 PM 28.4 °F 20.4 °F 8.6 °F 43% 29.84 in 10.0 mi NW 8.1 mph - N/A   Mostly Cloudy
11:36 PM 28.4 °F 18.5 °F 5.0 °F 37% 29.84 in 10.0 mi WNW 11.5 mph 24.2 mph N/A   Mostly Cloudy
11:56 PM 28.4 °F 22.2 °F 5.0 °F 37% 29.84 in 10.0 mi North 5.8 mph - N/A   Scattered Clouds